Miscellaneous Local Product
Issued by NWS Hastings, NE

Home | Current Version | Previous Version | Text Only | Print | Product List | Glossary Off
Versions: 1 2 3 4 5 6 7 8 9 10 11 12 13 14 15 16 17 18 19 20 21 22 23 24 25 26 27 28 29 30 31 32 33 34 35 36 37 38 39 40 41 42 43 44 45 46 47 48 49 50

000
AXUS43 KGID 281502
MISGRI

GID CWA HOURLY WEATHER ROUNDUP
NATIONAL WEATHER SERVICE HASTINGS NE
1000 AM CDT FRI AUG 28 2015

NOTE: "FAIR" INDICATES FEW OR NO CLOUDS BELOW 12,000 FEET WITH NO
SIGNIFICANT WEATHER AND/OR OBSTRUCTIONS TO VISIBILITY.

...SOUTH CENTRAL NEBRASKA...

CITY           SKY/WX    TMP DP  RH WIND       PRES   REMARKS
GRAND ISLAND   CLOUDY    72  64  76 N13       29.90R
HASTINGS       CLOUDY    71  66  84 NW10      29.91R
KEARNEY        CLOUDY    72  63  73 NW13      29.93R
ORD            CLOUDY    69  65  86 N10       29.90R
YORK           CLOUDY    70  66  88 NW8       29.87R
AURORA         CLOUDY    71  67  88 N13       29.89R
LEXINGTON      PTSUNNY   72  67  82 NW10      29.95S
HOLDREGE       PTSUNNY   71  64  81 NW6       29.94R
HEBRON         CLOUDY    73  67  79 W6        29.88S

...NEBRASKA PANHANDLE...

CITY           SKY/WX    TMP DP  RH WIND       PRES   REMARKS
CHADRON        SUNNY     70  50  49 NW8       30.07S HAZE
ALLIANCE       SUNNY     68  54  60 NW3       30.08R
SCOTTSBLUFF    SUNNY     67  53  61 W13       30.12R
SIDNEY         SUNNY     72  51  47 NW15      30.13R

...WESTERN AND NORTH CENTRAL NEBRASKA...

CITY           SKY/WX    TMP DP  RH WIND       PRES   REMARKS
VALENTINE      NOT AVBL
AINSWORTH      CLOUDY    67  67  98 N12       29.98R
ONEILL         CLOUDY    65  65  99 N13       29.93S FOG
BROKEN BOW     CLOUDY    70  65  84 NW12G20   29.94R
IMPERIAL       SUNNY     75  54  47 NW14      30.03S
NORTH PLATTE   MOSUNNY   69  63  81 NW8       29.99R
MCCOOK         SUNNY     75  59  57 NW16      29.97F

...EASTERN NEBRASKA...

CITY           SKY/WX    TMP DP  RH WIND       PRES   REMARKS
NORFOLK        CLOUDY    68  65  90 N12       29.85R
SO SIOUX CITY  CLOUDY    67  63  87 N7        29.82R FOG
TEKAMAH        CLOUDY    71  68  90 S8        29.80S
COLUMBUS       CLOUDY    72  63  73 NW12G17   29.85R
ALBION         PTSUNNY   70  64  81 N14       29.88R
OMAHA EPPLEY   CLOUDY    71  67  87 S13       29.82F
OFFUTT AFB     CLOUDY    70  66  89 SE12      29.82F
MILLARD        CLOUDY    72  67  85 SE7       29.82F
LINCOLN        CLOUDY    75  68  78 SW14      29.83F
NEBRASKA CITY  PTSUNNY   71  69  93 S13       29.86F
BEATRICE       CLOUDY    74  66  77 S13       29.86S
FALLS CITY     CLOUDY    72  66  81 S12       29.88F

...NORTHERN KANSAS...

CITY           SKY/WX    TMP DP  RH WIND       PRES   REMARKS
GOODLAND       SUNNY     77  56  48 NW15G22   30.07R
HILL CITY      SUNNY     77  64  64 NW12      29.96R
NORTON         SUNNY     73  59  60 NW10      29.95S
PHILLIPSBURG   PTSUNNY   73  66  78 NW8       29.94S
SMITH CENTER   CLOUDY    72  66  83 NW6       29.92S
HAYS           SUNNY     77  61  57 NW14      29.95S
RUSSELL        SUNNY     77  68  73 NW12      29.92R
CONCORDIA      MOSUNNY   77  68  73 SW14      29.88F
SALINA         SUNNY     81  66  60 SW20      29.90S
TOPEKA         CLOUDY    71  68  90 S13       29.91F



USA.gov is the U.S. government's official web portal to all federal, state and local government web resources and services.